Voltar ao catálogo

GSAT 18

AtivoComunicaçõesGEO
NORAD 41793·PAYLOAD·🇮🇳 India

Lançado Oct 5, 2016 de Guiana Space Centre

Loading…

TLE

AtualizadoSource: Space-Track

Época: Sep 14, 2026, 14:09 UTC

1 41793U 16060A   26257.58974774 -.00000084  00000-0  00000-0 0  9993
2 41793   0.0178 156.0048 0002980 319.4166 164.4269  1.00271397 36422

Acompanhe GSAT 18 em tempo real com AllMySat

Download on the App Store